GFSSGP_925_rhum_072.txt.gz
RH
15 13 20 18 21 17 15 10 7 9 8 9 10 12 14 14 13 35 47 56 59 68 76 67 65 85 84 86 92 94 72 73 72 66 71 75 74 72 81 84 87 85 91 96 97 97 97 97 77
23 17 17 16 23 20 12 8 9 8 8 9 9 11 14 16 21 28 44 61 63 58 69 77 68 84 92 86 85 89 90 88 80 75 73 69 72 75 83 86 88 87 89 96 95 97 99 84 76
21 21 18 20 19 17 13 8 8 8 8 9 9 9 14 16 26 30 50 62 69 62 62 73 71 80 95 94 88 89 87 89 82 75 75 73 72 82 86 85 87 82 86 94 95 97 96 79 69
20 15 14 18 15 11 9 9 9 9 8 9 10 13 12 27 25 34 50 60 70 66 63 76 75 74 88 93 90 88 86 87 82 68 77 76 78 86 85 86 86 85 86 90 96 100 82 75 58
16 12 17 17 14 10 8 9 8 10 9 11 11 15 17 37 42 45 50 58 66 69 64 75 73 72 83 95 91 89 90 78 76 76 85 85 82 85 84 85 82 82 85 96 98 95 75 68 55
16 13 18 16 12 8 7 9 9 10 10 10 10 14 21 37 38 52 57 60 69 74 78 78 77 75 71 83 89 92 90 95 82 81 88 90 85 83 80 82 81 88 86 89 98 79 73 67 49
17 14 16 14 12 9 7 9 10 10 10 10 13 18 16 30 41 50 50 58 72 80 83 82 84 82 82 82 86 86 79 79 97 87 88 89 84 80 81 82 83 86 83 85 75 73 71 51 50
14 14 15 13 12 10 6 9 10 10 10 10 11 14 22 41 46 52 53 58 60 78 86 90 89 90 96 88 80 70 66 80 80 90 89 88 82 80 83 80 81 84 82 78 61 54 48 48 51
11 16 17 14 11 9 7 10 9 8 9 10 10 14 20 38 41 45 48 59 64 69 75 92 89 88 96 90 78 70 71 85 99 91 90 85 80 80 86 83 75 78 78 56 54 43 45 48 50
13 17 15 10 8 8 7 7 9 10 10 11 10 14 28 33 34 37 40 46 53 62 76 85 87 88 88 86 82 75 71 59 92 88 87 92 87 89 92 82 67 63 55 48 40 39 40 46 51
13 16 12 9 7 7 8 8 7 9 11 12 14 17 19 31 32 39 40 44 52 58 72 76 86 82 87 83 88 97 95 83 84 88 80 90 93 87 92 80 54 54 44 44 40 44 45 52 52
13 10 10 10 8 8 8 8 9 9 12 11 10 16 21 27 36 36 42 41 52 65 75 85 87 89 91 89 85 95 92 86 98 94 84 84 81 87 98 76 54 50 52 47 38 50 52 47 55
12 10 8 8 8 8 8 8 10 10 9 8 9 23 29 29 35 34 37 58 57 66 76 90 95 98 97 94 87 97 100 100 100 94 84 78 82 85 85 74 48 66 57 51 45 58 48 46 47
11 9 8 8 8 9 8 9 9 10 9 9 10 19 29 31 35 33 40 56 66 73 81 96 99 86 98 98 86 87 100 99 96 94 83 78 78 66 80 72 62 69 57 52 56 58 50 48 48
11 13 11 10 9 10 8 10 10 8 8 10 9 14 24 29 32 37 38 58 63 78 90 97 97 98 99 97 81 95 100 99 99 88 80 77 67 68 76 72 61 66 57 56 55 52 52 49 48
15 14 17 11 10 9 10 15 10 8 9 9 12 16 24 28 31 36 38 58 69 77 94 94 97 98 99 99 100 100 100 100 96 90 87 75 67 72 76 65 60 60 55 56 56 51 50 48 47
19 21 17 14 9 10 11 14 10 9 12 12 14 18 23 28 32 33 43 52 71 80 98 96 96 97 100 100 100 100 100 100 99 99 84 72 78 82 80 67 67 61 53 56 52 49 47 46 47
28 20 17 17 12 11 12 12 11 12 14 15 15 15 22 29 30 34 42 50 78 87 95 95 92 99 100 99 99 100 100 100 100 100 93 83 78 80 56 75 63 72 64 53 52 49 44 44 43
22 20 18 13 11 13 14 13 11 10 11 15 16 17 21 30 29 34 44 55 78 94 100 100 95 98 100 99 100 100 100 100 99 99 95 78 69 65 66 61 58 56 55 54 50 48 49 51 48
23 26 23 15 12 13 13 14 11 10 10 11 15 17 18 27 30 38 47 57 77 88 98 99 99 99 97 99 99 100 100 100 99 86 88 86 85 71 66 62 61 58 58 53 53 52 57 54 50
25 26 25 20 14 13 13 16 15 11 9 9 10 13 15 26 32 38 47 55 77 83 96 100 99 99 98 98 100 100 100 100 100 96 91 86 78 72 67 62 59 56 59 56 57 59 61 62 59
28 21 21 20 21 25 15 23 16 13 12 10 11 14 14 18 30 35 43 53 64 77 86 94 99 99 97 95 98 98 97 97 89 79 74 58 58 63 66 60 62 51 63 69 68 66 67 69 61
28 27 31 21 22 24 19 22 18 12 13 12 12 14 16 16 31 34 41 46 58 72 82 93 93 97 95 93 91 93 92 88 85 67 67 79 72 66 64 63 70 64 65 66 68 68 68 64 64
26 32 44 29 26 35 24 24 22 17 14 11 11 11 16 18 31 32 38 42 51 71 81 89 94 94 91 92 85 86 84 84 83 77 74 87 84 82 74 72 78 63 61 65 66 67 71 62 68
35 59 76 56 44 43 22 24 22 15 12 11 11 11 15 20 28 32 39 40 45 68 81 92 94 91 95 92 88 84 82 82 84 77 74 82 84 84 82 73 86 67 70 70 68 69 71 64 65
38 50 49 64 53 38 22 27 20 13 10 11 12 11 14 18 27 32 36 39 40 62 73 82 88 90 92 96 93 86 84 80 79 81 73 69 79 84 82 82 80 74 57 57 64 71 64 61 62
53 47 32 39 40 50 30 20 18 13 12 12 12 13 14 16 25 30 33 38 39 48 63 72 84 88 96 98 95 90 88 82 78 79 80 71 71 78 80 81 75 68 54 55 57 61 66 62 62
57 42 57 36 60 81 40 32 25 20 16 13 13 16 17 16 21 28 31 39 38 43 52 63 64 71 87 90 97 95 87 84 80 75 76 78 78 78 81 78 80 71 66 57 55 58 61 72 68
53 41 43 34 33 55 60 42 44 25 16 16 18 18 19 21 22 29 30 35 36 40 48 57 60 58 69 87 93 92 91 87 85 79 74 70 78 80 76 80 80 74 66 64 70 71 70 70 66
41 47 39 52 53 36 48 41 28 21 17 18 16 15 18 17 23 26 30 35 36 40 43 53 58 58 54 71 82 88 89 87 86 83 80 79 78 80 79 74 77 73 71 71 72 72 70 68 65

GFSSGP_925_rhum_075.txt.gz
RH
13 13 13 24 37 35 33 22 14 11 15 14 12 16 18 16 20 54 58 54 69 72 66 74 72 68 62 61 82 80 71 66 60 58 58 65 62 56 60 68 81 83 89 94 92 96 98 90 73
13 16 21 31 37 42 35 17 15 13 13 11 10 11 15 30 50 62 63 56 68 73 68 60 79 81 77 78 76 84 78 75 68 62 58 62 59 63 74 83 86 88 89 95 96 97 96 75 73
18 24 32 36 40 37 33 14 11 11 10 10 10 10 15 39 36 54 59 58 60 72 71 68 65 89 84 78 81 84 89 85 79 64 62 64 66 73 79 82 86 87 90 92 96 97 78 71 73
20 28 27 29 34 26 21 15 11 11 10 11 11 15 31 30 34 51 58 58 65 63 73 74 68 79 96 88 82 81 78 78 72 68 62 63 71 81 80 81 84 87 89 94 97 82 69 63 66
21 27 31 34 28 19 14 12 11 12 12 14 14 16 34 46 46 52 57 60 58 67 66 71 75 70 73 93 90 85 82 84 80 70 64 60 73 85 82 81 79 84 88 93 89 74 62 63 68
26 26 32 33 24 16 13 11 12 14 12 11 12 16 43 44 46 53 56 62 67 72 79 77 77 75 73 76 80 87 99 90 91 98 78 85 88 89 84 80 80 86 87 97 81 68 57 58 55
29 31 30 26 22 17 13 12 13 12 12 12 14 18 48 47 51 52 55 62 64 68 86 86 83 82 81 83 85 97 74 67 86 80 98 90 90 88 83 78 78 84 85 94 77 67 56 50 51
24 29 30 24 22 19 11 11 12 12 12 15 13 17 54 51 50 50 53 58 72 74 70 93 91 87 88 89 91 87 80 70 74 74 95 90 89 86 84 85 80 79 82 84 74 66 49 49 49
20 28 30 24 20 16 11 12 11 10 10 11 12 15 37 47 49 53 57 61 64 76 72 71 90 95 92 86 87 81 74 68 70 66 67 94 89 87 87 88 83 79 78 78 73 55 47 50 50
24 27 24 17 15 15 11 11 12 13 13 14 16 45 47 46 47 53 60 70 68 69 68 77 81 92 99 92 82 75 67 61 78 84 86 98 90 88 83 86 81 76 63 64 61 42 50 49 48
24 25 17 16 14 13 13 12 10 11 14 13 20 44 44 41 43 47 44 54 56 65 75 79 75 76 93 94 83 80 74 63 92 83 95 99 93 92 86 90 87 75 47 49 46 45 51 48 48
27 19 17 14 13 12 13 11 11 11 13 11 10 18 41 43 46 52 49 48 55 62 69 82 85 80 81 95 94 87 76 87 86 97 99 96 97 98 91 88 75 69 48 40 40 39 50 49 50
24 19 14 12 12 11 11 12 12 12 11 11 12 29 31 43 45 40 53 56 60 73 84 88 93 93 93 91 92 95 97 89 84 94 98 98 100 98 86 71 56 51 43 39 38 40 51 51 54
20 18 16 14 12 10 11 11 12 12 12 11 11 37 39 38 44 43 60 60 65 81 86 84 80 92 93 99 92 99 100 97 94 98 95 91 97 86 55 47 45 49 40 36 45 44 50 48 54
20 23 18 16 13 12 10 15 14 12 11 12 13 23 39 40 42 47 52 62 71 87 88 82 80 80 95 98 100 96 100 100 100 96 89 82 84 76 55 47 45 49 38 47 58 51 44 45 54
30 23 27 18 15 13 14 18 14 12 12 12 12 16 36 42 44 41 56 66 76 90 88 85 94 98 98 95 99 100 100 100 97 97 80 86 81 72 62 43 59 57 40 51 60 61 50 51 50
32 36 31 21 14 14 14 16 12 12 12 15 16 22 35 43 47 44 61 67 75 88 86 94 93 99 91 100 99 99 100 99 100 89 93 78 71 64 53 49 66 66 44 51 58 54 51 49 50
43 37 29 24 17 15 16 15 12 14 16 17 19 21 36 41 44 50 63 70 77 84 89 94 97 99 96 97 100 100 100 100 100 98 91 78 69 65 53 71 63 67 55 59 59 52 50 48 49
35 34 34 23 16 17 18 15 14 14 14 22 23 21 33 40 44 52 73 74 85 87 95 93 100 96 99 100 100 100 100 100 100 96 90 86 71 70 71 73 65 65 59 58 53 50 49 49 49
34 35 33 26 21 21 22 25 16 15 16 16 22 24 28 42 50 57 85 84 87 95 87 96 99 100 98 97 99 100 100 100 100 100 93 74 73 75 78 75 65 70 63 60 54 50 51 48 50
37 38 31 29 23 23 21 21 17 15 14 14 19 19 24 40 54 59 81 88 92 99 98 97 97 99 100 96 100 100 100 100 100 100 98 82 75 77 78 59 62 72 67 70 57 48 51 54 51
52 37 31 27 32 60 36 37 24 17 16 15 14 21 25 39 50 56 70 88 89 87 84 89 99 95 100 99 100 100 98 98 98 98 95 87 81 76 73 67 70 72 77 65 51 51 53 52 56
45 41 43 48 63 61 52 36 26 20 20 17 14 21 24 38 50 57 64 82 84 80 98 98 100 99 98 100 100 99 100 99 98 91 92 89 84 80 71 65 62 60 56 53 52 55 53 57 58
49 57 48 60 64 84 58 42 32 24 21 19 14 18 21 39 46 52 59 70 82 86 90 100 100 96 99 100 98 98 97 96 95 90 86 88 87 80 70 65 61 60 58 56 53 55 63 63 59
54 67 90 91 94 90 39 38 28 24 18 16 18 20 25 40 44 52 61 68 79 83 83 94 94 97 98 99 98 95 95 90 88 81 77 80 82 80 75 69 65 59 59 62 54 64 68 66 65
54 87 84 92 87 56 31 38 28 19 16 15 13 22 27 40 42 50 54 62 78 83 81 85 90 94 95 96 95 93 90 89 85 76 70 70 77 77 72 68 72 74 70 64 64 59 65 64 57
74 96 62 83 60 91 59 26 21 18 17 17 16 18 30 40 42 48 50 55 75 85 86 89 86 82 95 94 93 90 91 89 87 82 71 67 73 82 80 76 75 76 78 73 64 65 67 70 63
69 56 83 99 93 93 60 52 34 23 21 19 17 20 21 34 40 46 47 51 68 79 88 90 91 89 89 92 94 92 87 86 84 87 79 71 69 76 81 83 79 76 74 72 71 67 63 65 66
86 93 91 88 89 77 90 76 55 42 28 24 27 26 28 34 40 44 44 46 55 72 81 85 91 91 94 92 94 93 91 87 84 83 86 80 73 69 76 75 79 80 76 71 71 70 66 67 65
60 89 86 99 83 64 67 80 49 34 26 25 25 22 22 27 38 41 43 46 50 58 72 78 81 88 90 91 89 89 83 90 90 86 81 84 84 78 77 79 79 83 86 81 74 72 67 70 71

GFSSGP_925_rhum_081.txt.gz
RH
29 23 18 26 40 46 45 34 23 20 16 14 15 20 21 21 20 27 48 46 58 58 61 63 59 59 62 68 71 68 62 63 62 65 76 78 73 74 75 76 80 87 92 96 96 89 94 99 89
25 22 24 40 47 46 35 32 26 21 16 13 16 32 34 42 58 65 68 60 52 55 58 63 65 62 59 65 70 72 66 62 64 69 75 78 71 76 72 76 84 86 87 93 97 96 99 97 90
23 28 36 43 55 51 30 27 21 19 13 13 12 15 37 49 61 70 55 46 60 61 59 61 63 68 63 62 69 68 66 66 68 68 71 76 76 75 72 75 82 84 86 90 96 90 99 94 93
26 32 41 46 49 45 31 23 23 20 14 13 12 32 38 45 63 52 51 44 62 69 68 67 67 76 82 74 71 71 68 69 73 75 72 71 72 61 60 82 85 87 86 83 84 98 92 88 88
24 40 50 47 45 36 28 25 18 20 17 16 15 23 40 51 52 54 57 60 66 75 74 73 76 80 98 98 76 72 86 85 82 78 80 82 82 83 78 82 84 84 82 83 89 90 93 88 86
30 38 48 54 40 28 23 19 17 18 17 16 18 47 57 55 58 61 59 60 65 68 75 76 78 81 88 94 80 76 87 88 94 98 94 82 80 82 86 87 87 86 86 88 91 93 91 88 86
29 42 46 39 32 28 21 17 18 18 18 17 19 56 56 67 62 65 65 71 70 72 75 80 84 94 87 85 84 83 90 91 96 83 85 88 84 85 85 90 86 88 89 92 94 94 87 83 80
36 40 42 36 32 30 20 18 16 16 16 17 34 60 66 63 63 68 73 76 77 75 77 85 86 80 97 99 94 91 100 87 81 72 75 79 83 90 72 83 84 84 86 94 93 89 88 83 77
31 44 54 40 34 25 21 20 16 14 14 14 23 48 40 50 67 71 82 81 81 86 84 86 85 74 75 90 93 95 100 94 77 74 73 58 77 82 94 87 83 83 85 91 91 84 68 71 73
44 54 42 33 23 25 24 20 20 17 18 17 24 49 62 60 71 78 84 90 88 90 92 89 82 76 77 74 88 98 100 98 98 85 68 70 80 75 85 82 82 83 82 86 82 63 62 75 77
43 36 32 28 26 26 26 21 19 19 20 18 20 36 71 68 69 74 77 80 83 76 78 82 86 86 86 81 83 97 100 100 100 90 83 86 76 89 82 88 82 88 86 83 70 61 66 71 74
48 38 30 29 27 26 25 23 21 19 19 16 16 36 69 69 69 71 77 70 72 80 78 78 86 90 97 95 96 98 99 100 92 80 82 81 100 100 100 96 92 83 94 85 67 61 68 72 70
39 38 32 30 28 27 24 25 24 21 17 15 16 53 67 64 63 62 63 63 67 75 77 81 90 92 98 100 100 96 99 99 100 83 80 97 96 93 100 100 96 89 93 80 64 66 70 69 69
28 29 30 27 29 27 26 25 21 19 17 15 16 28 60 63 62 64 61 66 74 73 76 82 82 85 87 100 100 98 89 96 100 98 82 98 91 94 98 100 93 84 86 78 64 64 63 65 66
33 40 35 32 27 28 23 26 24 18 16 15 15 27 46 56 57 59 59 70 72 71 73 81 81 89 97 99 99 99 84 77 84 100 87 94 98 100 100 100 91 78 77 71 63 61 61 65 69
37 38 46 29 28 26 24 34 23 19 18 18 16 18 41 53 55 52 60 64 72 75 81 85 86 93 100 98 100 100 93 95 77 97 95 93 100 100 100 100 93 74 74 70 58 62 63 67 70
47 49 47 39 25 26 24 28 22 17 17 18 17 17 21 42 54 58 63 72 78 76 84 88 81 76 97 93 99 100 99 100 92 99 99 100 100 100 100 92 88 64 66 64 54 59 59 68 69
57 55 49 46 30 31 34 36 31 24 21 21 19 17 19 44 46 54 69 80 80 80 88 88 87 92 95 88 98 99 100 100 99 100 100 99 100 100 92 85 72 56 57 57 52 56 56 61 65
48 51 52 46 36 36 35 36 30 27 25 28 24 22 20 38 44 73 88 88 89 90 94 94 99 99 98 98 98 100 100 100 100 100 99 100 100 97 83 73 56 49 46 50 47 55 52 65 68
41 49 50 42 35 35 39 40 31 27 26 25 26 23 20 57 88 92 97 98 100 98 93 96 99 98 99 99 100 100 99 100 100 100 100 100 96 88 72 66 54 51 50 50 53 54 54 62 62
51 62 52 49 41 38 40 41 32 25 29 30 28 20 22 56 81 94 90 94 96 99 100 100 92 98 98 93 100 100 100 99 100 100 100 100 98 88 71 64 60 59 58 69 60 54 52 58 62
77 54 51 43 57 66 52 69 49 40 34 29 27 23 33 53 64 85 91 89 94 98 100 99 94 95 93 92 99 99 99 98 99 100 100 100 97 96 73 64 67 56 60 63 62 58 56 54 63
67 61 55 56 67 70 60 76 52 38 38 32 28 23 28 44 63 84 93 86 93 98 100 100 94 98 100 95 88 100 98 97 99 100 100 100 100 97 90 72 70 71 61 63 64 64 62 57 54
58 59 59 58 70 90 62 64 57 43 35 28 24 22 25 44 59 74 87 89 94 98 99 100 98 100 100 92 97 94 99 99 100 100 100 100 99 97 95 93 86 72 71 56 57 60 64 59 54
66 74 94 93 94 80 49 57 47 35 30 29 27 23 27 44 64 85 97 94 96 98 98 100 100 100 100 98 95 96 93 91 99 100 100 100 100 100 94 90 90 81 70 70 65 65 67 63 66
81 82 92 88 94 83 43 61 43 31 27 25 26 25 24 41 63 85 92 94 94 95 98 100 100 99 99 97 93 100 97 96 94 98 99 99 99 98 95 94 86 75 71 70 70 70 68 71 75
78 94 74 99 89 98 78 63 36 58 30 43 42 33 37 46 65 80 86 88 96 95 96 96 96 97 100 99 94 100 99 99 98 92 88 95 95 96 92 88 83 80 71 70 67 67 73 68 64
74 81 100 93 96 92 74 64 82 87 72 54 42 38 41 57 66 77 81 87 90 97 97 97 95 96 97 100 99 100 100 99 97 96 93 92 91 90 88 87 84 82 79 77 75 75 82 74 81
85 84 98 96 92 96 96 90 73 86 73 69 55 51 58 59 64 72 76 83 89 95 99 100 98 94 93 96 98 94 97 98 93 92 92 91 88 88 87 84 78 79 78 76 79 85 85 82 82
75 78 88 100 100 95 91 81 78 75 67 63 58 58 50 55 60 68 76 84 90 92 96 95 93 90 91 95 99 96 91 93 94 89 87 86 85 82 79 77 77 78 76 80 79 77 80 76 75

GFSSGP_925_rhum_087.txt.gz
RH
26 28 21 27 23 28 26 20 22 18 17 15 16 16 16 16 30 21 43 53 42 39 47 51 51 72 71 67 61 58 70 73 71 70 66 64 68 73 82 83 84 86 87 91 86 76 90 90 87
32 26 27 30 21 15 13 25 22 18 17 17 16 26 23 18 34 40 47 56 44 39 45 53 54 89 74 70 63 59 72 80 75 73 70 72 73 78 78 81 84 87 88 90 89 93 93 91 87
26 24 25 29 29 12 12 18 18 18 18 17 12 20 20 22 48 44 41 50 42 46 48 53 58 100 83 73 67 64 88 82 77 75 75 73 77 81 80 83 84 86 83 86 88 92 90 90 88
29 28 31 31 27 24 14 17 21 20 15 14 13 14 23 35 49 54 37 47 43 51 52 56 57 100 97 81 71 70 82 94 83 77 76 77 80 77 72 76 82 83 83 83 86 87 88 92 89
27 30 30 37 32 26 27 22 22 20 18 17 15 15 21 39 42 49 46 41 43 54 54 55 62 99 98 93 75 75 70 87 94 81 80 83 83 73 71 74 72 74 82 85 86 88 90 94 94
25 30 30 24 30 21 23 20 17 16 15 15 16 17 20 55 61 53 54 49 45 50 58 62 70 100 97 98 81 76 72 68 95 91 79 71 73 75 74 75 76 70 78 92 94 88 94 98 94
21 30 21 29 29 23 16 19 18 14 14 15 19 25 28 43 60 62 65 55 53 58 60 66 76 100 98 94 91 84 76 78 83 67 82 75 80 78 74 72 64 71 81 88 90 93 95 100 92
22 23 32 32 24 18 14 19 16 16 14 15 24 24 18 37 62 70 78 74 66 71 71 69 86 99 97 92 91 92 85 83 81 76 81 78 81 80 76 70 57 75 85 87 85 92 96 98 92
28 26 29 24 25 16 20 20 18 16 16 16 16 22 25 52 74 82 91 96 91 84 82 85 96 97 96 94 97 93 88 81 81 84 74 75 74 69 74 76 77 82 90 91 85 87 96 96 90
30 33 28 24 19 17 17 17 17 18 18 17 17 18 32 63 74 74 76 80 98 94 91 88 100 98 98 99 95 95 94 92 84 80 75 69 68 67 63 69 73 83 90 95 86 85 94 94 96
36 33 27 24 22 21 18 21 17 18 20 19 18 18 31 38 58 72 70 70 78 98 92 93 99 99 98 98 100 98 100 97 89 76 79 77 72 64 68 81 83 92 98 86 84 83 96 97 92
38 41 29 22 22 24 24 17 21 21 20 18 18 18 19 28 39 55 70 70 78 92 93 86 97 100 100 96 99 99 100 100 99 87 86 80 74 78 86 92 80 91 94 87 91 99 98 98 94
42 38 33 32 29 28 26 28 27 28 21 19 19 21 21 20 28 40 52 64 78 81 90 87 92 96 100 97 99 97 100 100 100 92 82 77 82 87 84 97 90 91 98 92 92 97 94 93 87
24 26 27 27 26 25 28 26 25 22 22 22 22 20 19 18 21 28 58 64 75 77 81 85 93 92 99 100 98 98 99 100 100 99 90 86 87 94 92 99 91 97 92 93 96 94 93 90 87
26 29 31 33 29 29 28 25 29 22 21 24 21 19 19 17 17 30 33 52 66 73 81 82 96 99 96 99 100 99 100 100 100 100 99 99 99 98 94 98 96 99 95 96 93 92 91 92 89
29 33 33 29 33 30 28 27 20 18 22 21 21 20 19 18 17 21 33 45 56 70 83 81 87 98 100 99 95 93 99 100 100 100 100 100 100 100 100 99 100 100 99 94 86 86 88 88 86
37 28 42 34 30 29 29 29 26 25 25 25 22 20 19 19 18 20 31 44 61 71 80 75 89 96 99 99 95 95 98 100 100 100 99 100 100 99 100 100 100 100 97 92 84 84 82 84 82
28 37 43 37 34 30 29 29 23 25 25 26 25 23 25 23 20 18 22 37 64 76 76 73 91 98 100 99 97 96 99 100 100 100 100 100 99 100 100 100 100 100 99 90 82 82 85 83 82
37 42 43 37 29 29 28 29 27 26 25 26 25 24 24 23 19 20 25 49 75 86 84 91 99 100 99 98 99 100 100 100 100 100 99 100 99 100 100 100 98 99 99 86 81 84 88 85 83
33 34 36 36 33 39 42 41 31 28 27 24 25 25 24 23 21 23 45 70 79 84 89 98 96 97 100 100 99 99 100 100 99 99 100 97 99 100 100 100 100 100 99 87 77 78 84 84 90
39 41 46 47 46 44 44 38 31 27 25 24 23 24 22 22 21 22 53 72 81 86 94 100 92 94 99 100 100 98 99 100 100 100 100 100 99 100 100 98 99 100 99 90 78 78 78 85 88
54 45 47 58 59 51 46 46 28 30 30 28 28 28 26 23 24 24 45 68 79 86 98 97 94 93 96 98 94 97 93 96 98 100 100 100 100 100 99 100 100 98 95 91 82 76 73 79 84
57 57 57 57 62 63 58 65 42 32 28 29 28 27 28 27 26 26 50 64 80 93 97 99 96 92 95 96 98 99 95 99 93 99 100 100 100 100 100 100 98 93 89 88 84 76 74 78 79
55 54 56 60 59 76 54 53 40 35 37 48 47 41 32 28 26 35 62 76 78 93 99 100 100 96 100 99 97 93 99 100 100 100 100 100 100 100 98 96 92 86 81 81 82 74 72 69 77
56 64 71 79 78 60 50 58 44 38 60 63 62 56 49 41 31 64 75 75 79 91 93 100 100 91 98 94 91 91 99 100 100 100 100 100 100 100 100 93 86 81 76 67 72 74 69 61 65
68 66 63 64 74 66 59 60 42 62 57 56 57 58 59 60 52 58 70 74 79 87 93 98 97 87 97 97 90 92 92 95 100 100 99 100 100 100 96 88 76 66 64 59 64 61 65 62 59
76 79 64 81 74 73 52 48 46 54 53 52 54 57 65 68 64 50 67 75 80 87 93 95 94 88 98 96 92 90 93 92 99 99 99 100 100 98 96 92 82 81 74 60 52 78 68 60 60
64 67 92 90 90 87 55 53 47 66 64 57 59 62 69 73 66 49 60 76 81 82 93 96 92 90 95 97 90 92 93 89 90 97 100 100 100 100 100 96 93 95 94 79 66 82 75 57 55
78 82 85 92 96 84 76 51 64 66 55 62 63 65 79 82 73 73 72 75 77 87 95 97 96 90 99 98 94 90 91 90 91 91 97 100 99 100 100 100 100 100 98 94 90 83 92 98 83
67 68 66 90 89 96 88 64 60 45 51 58 69 72 80 81 83 81 80 79 83 90 96 98 96 94 94 94 96 88 96 97 98 98 97 94 99 100 98 98 99 100 100 100 99 93 82 95 99